Hourly Data Report for April 15, 2018

CLYDE RIVER A
NUNAVUT
Current Station Operator: NAVCAN

70°29'09.000" N
68°31'01.000" W
26.50 m
2400804
71090
YCY

Download Data

Hourly Data (April 2018)
Hourly Data Report for April 15, 2018
TIME
LST
Temp Definition
°C
Dew Point Definition
°C
Rel Hum Definition
%
Precip. Amount Definition
mm

Wind Dir Definition
10's deg

Wind Spd Definition
km/h
Visibility Definition
km
Stn Press Definition
kPa
Hmdx Definition


Wind Chill Definition


Weather Definition


00:00 -19.8 -22.8 77 0.0 30 13 16.1 101.39   -28 LegendNANA
01:00 -17.7 -21.7 72 0.0 27 13 16.1 101.42   -26 LegendNANA
02:00 -20.0 -23.2 76 0.0 24 9 16.1 101.48   -27 LegendNANA
03:00 -18.6 -21.7 77 0.0 27 17 16.1 101.53   -28 LegendNANA
04:00 -20.5 -23.7 76 0.0 24 8 16.1 101.63   -27 LegendNANA
05:00 -17.7 -20.8 77 0.0 26 9 16.1 101.68   -24 LegendNANA
06:00 -18.6 -22.3 73 0.0 26 8 16.1 101.76   -25 LegendNANA
07:00 -18.8 -21.6 79 0.0 28 8 16.1 101.87   -25 LegendNANA
08:00 -16.2 -19.8 74 0.0   0 16.1 101.93     LegendNANA
09:00 -16.6 -20.3 74 0.0 LegendMM 4 16.1 101.96   -20 LegendNANA
10:00 -14.8 -19.1 70 0.0 25 5 16.1 101.99   -18 LegendNANA
11:00 -13.8 -17.7 73 0.0 LegendMM 4 16.1 102.02   -17 LegendNANA
12:00 -13.8 -17.8 72 0.0 12 4 16.1 102.06   -17 LegendNANA
13:00 -13.9 -17.8 73 0.0 13 5 16.1 102.09   -17 LegendNANA
14:00 -14.1 -17.0 79 0.0 15 9 16.1 102.12   -20 LegendNANA
15:00 -14.9 -17.5 81 0.0 10 13 16.1 102.11   -22 LegendNANA
16:00 -15.8 -17.9 84 0.0 13 17 16.1 102.15   -24 LegendNANA
17:00 -15.2 -17.6 82 0.0 13 18 16.1 102.16   -24 LegendNANA
18:00 -15.6 -17.6 85 0.0 13 18 16.1 102.15   -24 LegendNANA
19:00 -15.5 -17.8 83 0.0 13 26 16.1 102.12   -26 LegendNANA
20:00 -16.4 -18.5 84 0.0 13 28 16.1 102.10   -28 LegendNANA
21:00 -17.1 -19.3 83 0.0 12 26 16.1 102.07   -28 LegendNANA
22:00 -17.1 -19.3 83 0.0 13 30 16.1 102.05   -29 LegendNANA
23:00 -17.1 -19.4 82 0.0 14 21 16.1 102.01   -27 LegendNANA

Notes on Data Quality.

Legend

  • E = Estimated
  • M = Missing
  • NA = Not Available*
  • [empty] = Indicates an unobserved value
Date modified: